Regional Weather Roundup
Issued by NWS Goodland, KS

Home | Current Version | Previous Version | Text Only | Print | Product List | Glossary On
Versions: 1 2 3 4 5 6 7 8 9 10 11 12 13 14 15 16 17 18 19 20 21 22 23 24 25 26 27 28 29 30 31 32 33 34 35 36 37 38 39 40 41 42 43 44 45 46 47 48 49 50
202
ASUS43 KGLD 180308
RWRGLD

GOODLAND FORECAST AREA HOURLY WEATHER ROUNDUP
NATIONAL WEATHER SERVICE GOODLAND KS
900 PM MDT THU AUG 17 2017

...OFFICIAL OBSERVATIONS...

CITY           SKY/WX    TMP DP  RH WIND       PRES   REMARKS
GOODLAND KS    CLEAR     75  62  64 S8        30.02F
HILL CITY KS   CLOUDY    74  57  55 SE3       29.97R
IMPERIAL NEB   CLOUDY    63  57  81 S9        29.98S
MCCOOK NEB     CLOUDY    76  50  40 S15       29.90S
AKRON CO       CLEAR     67  47  48 S3        30.07R
BURLINGTON CO  CLEAR     68  52  56 SW6       30.06R
LIMON CO       CLEAR     62  51  67 CALM      30.14S
$$

...UNOFFICIAL OBSERVATIONS...

CITY           SKY/WX    TMP DP  RH WIND       PRES   REMARKS
LENORA KS        N/A     71  32  23 W15         N/A
NORTON KS      MOCLDY    73  48  40 W26       30.01R
SHARON SPRINGS   N/A     65  60  85 S8          N/A
TRENTON NEB      N/A     64  32  30 SW5         N/A
KIT CARSON CO    N/A     68  53  57 CALM        N/A
YUMA CO        FAIR      63  43  48 S6        30.03R
$$




USA.gov is the U.S. government's official web portal to all federal, state and local government web resources and services.